AirNav   Phillips 66 Aviation Fuel
 
 308 users online  

CA84 Torrey Pines Gliderport
San Diego, California, USA

GOING TO SAN DIEGO?


FAA INFORMATION EFFECTIVE 25 APRIL 2019

Location

FAA Identifier: CA84
Lat/Long: 32-53-23.0000N / 117-14-49.0000W
32-53.383333N / 117-14.816667W
32.8897222 / -117.2469444
(estimated)
Elevation: 372 ft. / 113 m (estimated)
Variation: 13E (1985)
From city: 11 miles NW of SAN DIEGO, CA
Time zone: UTC -7 (UTC -8 during Standard Time)
Zip code: 92037

Gliderport Operations

Gliderport use: Private use. Permission required prior to landing
Activation date: 11/1961
Control tower: no
ARTCC: LOS ANGELES CENTER
FSS: SAN DIEGO FLIGHT SERVICE STATION
Attendance: UNATNDD
Wind indicator: no
Segmented circle: no

Gliderport Communications

WX ASOS at MYF (7 nm SE): 126.9 (858-576-4337)
WX ASOS at SAN (10 nm S): PHONE 619-296-8934
WX AWOS-3P at SEE (14 nm E): 125.45 (619-449-1228)
WX ASOS at CRQ (14 nm N): PHONE 760-930-0864
WX ASOS at RNM (19 nm NE): 132.025 (760-789-0736)

Nearby radio navigation aids

VOR radial/distance  VOR name  Freq  Var
MZBr335/6.5MISSION BAY VORTAC117.8015E
PGYr307/21.5POGGI VORTAC109.8014E
OCNr143/22.7OCEANSIDE VORTAC115.3015E
TIJr311/25.7TIJUANA VOR/DME116.5014E
JLIr231/36.5JULIAN VORTAC114.0015E

Gliderport Services

Airframe service: NONE
Powerplant service: NONE

Runway Information

Runway 9/27

Dimensions: 1500 x 30 ft. / 457 x 9 m
Surface: asphalt
RUNWAY 9  RUNWAY 27
Traffic pattern: leftleft
Obstructions: nonetrees, 100 ft. from runway

Gliderport Ownership and Management from official FAA records

Ownership: Publicly-owned
Owner: CITY OF SAN DIEGO
Manager: JIM FROST
4740 HARBINSON AVE
LA MESA, CA 91941
Phone 619-461-9614
WORK PHONE 619-535-9505 EXT 1585

Additional Remarks

GLIDER PORT IS LEASED FM CITY TO THE ASSOCD GLIDER CLUB OF SOUTHERN CALIF FOR STUDENT TRAINING & RIDGE SOARING.
ALL ACFT ARE TRAILERED GLIDERS.
ROLLING RWY .6 PERCENT GRADIENT.
EXTENSIVE HANG GLIDER OPERATIONS ON WEEKENDS AND WEEKDAYS.

Instrument Procedures

There are no published instrument procedures at CA84.

Some nearby airports with instrument procedures:

KNKX - Miramar MCAS (Joe Foss Field) Airport (5 nm E)
KMYF - Montgomery-Gibbs Executive Airport (7 nm SE)
KSAN - San Diego International Airport (10 nm S)
KNZY - North Island Naval Air Station (Halsey Field) (12 nm S)
KSEE - Gillespie Field Airport (14 nm E)
KCRQ - Mc Clellan-Palomar Airport (14 nm N)
KRNM - Ramona Airport (19 nm NE)
 
Loc | Ops | Rwys | IFR | FBO | Links
Com | Nav | Svcs | Stats | Notes
Area around CA84 (Torrey Pines Gliderport)
 
Road maps at: MapQuest Bing Google
 
Aerial photo
WARNING: Photo may not be current or correct
Aerial photo of CA84 (Torrey Pines Gliderport)
Photo by Doug Fronius
Photo taken 13-Mar-2004
from a 1942 Schweizer TG-2 sailplane.

Do you have a better or more recent aerial photo of Torrey Pines Gliderport that you would like to share? If so, please send us your photo.

 
Sectional chart

 
Airport distance calculator
Flying to Torrey Pines Gliderport? Find the distance to fly.

From to CA84

Sunrise and sunset
Times for 20-May-2019
 Local
(UTC-7)
 Zulu
(UTC)
Morning civil twilight05:2012:20
Sunrise05:4812:48
Sunset19:4302:43
Evening civil twilight20:1103:11

Current date and time
Zulu (UTC)  20-May-2019 09:45:11
Local (UTC-7)  20-May-2019 02:45:11
 
METAR
KNKX 
6nm E 
200855Z 29008KT 10SM SCT024 BKN034 14/10 A2990 RMK AO2 SLP121 60002 T01440100 56010 $
KMYF 
7nm SE 
200937Z AUTO 29006KT 10SM SCT027 SCT039 BKN055 13/09 A2990 RMK AO2 T01330089
KSAN 
10nm S 
200851Z 31009KT 10SM SCT026 16/09 A2992 RMK AO2 SLP132 60000 T01560094 56010
KNZY 
11nm S 
200852Z AUTO 29014KT 10SM FEW028 15/09 A2990 RMK AO2 SLP124 60002 T01500094 58011
KCRQ 
15nm N 
200930Z AUTO 28006KT 10SM BKN023 BKN028 OVC037 15/10 A2988 RMK AO2 T01500100
KSEE 
15nm E 
200935Z AUTO 00000KT 10SM 13/11 A2990 RMK AO2
KRNM 
19nm NE 
200853Z AUTO 27012KT 10SM SCT012 SCT022 BKN029 12/09 A2989 RMK AO2 RAB26E35 SLP114 P0000 60002 T01170089 58010
TAF
KNKX 
6nm E 
2003/2103 29010KT 9999 BKN025 QNH2984INS TEMPO 2003/2009 27010G18KT SCT025 FM201330 26012G22KT 9999 SCT025 BKN040 QNH2986INS BECMG 2023/2101 26006KT 9999 BKN025 QNH2992INS T13/2010Z T18/2021Z
KSAN 
10nm S 
200751Z 2008/2112 28008KT P6SM VCSH SCT027 BKN050 TEMPO 2010/2012 -SHRA BKN027 FM201400 28012KT P6SM BKN025 FM210300 26007KT P6SM BKN020
KNZY 
11nm S 
2007/2107 29012G20KT 9999 BKN035 BKN070 520009 520909 QNH2984INS TEMPO 2007/2010 8000 -SHRA BR OVC025 FM201000 29015G20KT 9999 VCSH BKN025 OVC070 640604 520009 520909 QNH2982INS TEMPO 2010/2015 6000 -SHRA BKN020CB FM201600 29012G20KT 9999 VCSH BKN030 600000 540009 540909 QNH2987INS FM210300 26008G15KT 9999 BKN025 540309 541206 QNH2990INS T14/2013Z T20/2021Z FS30111
KCRQ 
15nm N 
200753Z 2008/2106 27007KT P6SM VCSH SCT020 BKN035 FM201300 25008G16KT P6SM BKN025 FM210300 26007KT P6SM BKN015
NOTAMs
Click for the latest NOTAMs
NOTAMs are issued by the DoD/FAA and will open in a separate window not controlled by AirNav.

 

 
 

Would you like to see your business listed on this page?

 If your business provides an interesting product or service to pilots, flight crews, aircraft, or users of the Torrey Pines Gliderport, you should consider listing it here.  To start the listing process, click on the button below
 
Add a business
 

Other Pages about Torrey Pines Gliderport

www.agcsc.org/torrey_pines_info.html
 
Update a link
 
Copyright © AirNav, LLC. All rights reserved. Privacy Policy  Contact